Location: Unspecified
(0.0000°N, 0.0000°E)
Time: 00:50:09
(UTC+00:00)

Amateur Radio Satellites - All Passes

Search period start: 28 February 2017 00:20
Search period end: 01 March 2017 00:20
Location: Unspecified, 0.0000°N, 0.0000°E

Satellite Date Start Highest point End Downlink Frequencies (MHz)
Time Altitude Azimuth
DX 1 28 Feb 00:20:28 00:24:48 73° 77° (ENE) 00:29:06 434.975-435.025
JUGNU 28 Feb 00:25:03 00:29:05 19° 15° (NNE) 00:33:08 437.505
SPROUT 28 Feb 00:26:22 00:30:18 38° 258° (WSW) 00:34:14 437.525
UKube-1 28 Feb 00:27:23 00:31:37 58° 78° (ENE) 00:35:50 .
BUGSAT 1 28 Feb 00:27:44 00:31:52 53° 282° (WNW) 00:35:59 437.445
NO-84 28 Feb 00:34:36 00:36:56 14° 57° (ENE) 00:39:16 435.350 FM
VELOX 1 28 Feb 00:38:29 00:41:51 21° 258° (WSW) 00:45:10 145.980
Oscar 19 28 Feb 00:43:58 00:48:48 43° 103° (ESE) 00:53:40 437.125/150
50 SAT 28 Feb 00:50:14 00:52:22 15° 258° (WSW) 00:54:29 437.505
AO-85 28 Feb 00:51:20 00:52:56 11° 114° (ESE) 00:54:31 145.980
SRMSAT 28 Feb 01:30:05 01:32:03 12° 8° (N) 01:34:00 437.500
ITUPSAT 1 28 Feb 01:33:38 01:36:14 15° 77° (ENE) 01:38:48 437.325
PCSat 28 Feb 01:34:35 01:39:21 32° 71° (ENE) 01:44:07 145.827
BEESAT 28 Feb 01:37:55 01:41:00 17° 77° (ENE) 01:44:05 436.000
Gurwin Techsat 1B 28 Feb 01:49:43 01:54:58 65° 283° (WNW) 02:00:14 435.225
AO-7 28 Feb 02:09:17 02:15:35 24° 107° (ESE) 02:21:52 .
NO-84 28 Feb 02:10:28 02:14:30 34° 238° (WSW) 02:18:29 435.350 FM
JUGNU 28 Feb 02:12:49 02:18:27 45° 21° (NNE) 02:24:07 437.505
Oscar 19 28 Feb 02:26:36 02:27:50 11° 283° (WNW) 02:29:07 437.125/150
AO-85 28 Feb 02:28:31 02:33:17 41° 290° (WNW) 02:37:46 145.980
RS-15 28 Feb 02:53:33 03:04:54 52° 69° (ENE) 03:15:39 29.354- 29.394
ITAMSAT 1 28 Feb 03:02:24 03:07:36 77° 282° (WNW) 03:12:47 435.822/435.867
ITUPSAT 1 28 Feb 03:09:39 03:13:46 29° 257° (WSW) 03:17:54 437.325
MOZHAYETS 4 28 Feb 03:10:32 03:15:11 84° 81° (E) 03:19:49
BEESAT 28 Feb 03:14:40 03:18:30 24° 257° (WSW) 03:22:21 436.000
SRMSAT 28 Feb 03:17:32 03:22:03 22° 16° (NNE) 03:26:34 437.500
PCSat 28 Feb 03:19:08 03:22:28 17° 250° (WSW) 03:25:49 145.827
KKS-1 28 Feb 03:23:03 03:26:13 19° 78° (ENE) 03:29:22 437.445
BEESAT 3 28 Feb 03:38:39 03:42:18 45° 111° (ESE) 03:45:58 437.485
STARS 28 Feb 03:49:54 03:52:31 16° 78° (ENE) 03:55:07 437.465
ISS 28 Feb 03:59:46 04:02:59 57° 126° (SE) 04:06:11 437.550
AO-7 28 Feb 04:00:15 04:07:58 45° 286° (WNW) 04:15:44 .
JUGNU 28 Feb 04:01:36 04:07:31 67° 201° (SSW) 04:13:28 437.505
CUBESAT XI-V 28 Feb 04:17:20 04:22:00 63° 78° (ENE) 04:26:36 437.345
Tancredo 1 28 Feb 04:18:27 04:21:39 59° 305° (NW) 04:24:50 437.200
BEESAT 2 28 Feb 04:22:53 04:26:42 62° 111° (ESE) 04:30:32 435.950
M-CUBED/EXP-1 PRIME 28 Feb 04:55:51 04:59:22 61° 75° (ENE) 05:02:40 437.505
KKS-1 28 Feb 04:59:31 05:02:30 18° 257° (WSW) 05:05:29 437.445
SRMSAT 28 Feb 05:05:40 05:11:31 53° 21° (NNE) 05:17:22 437.500
RS-15 28 Feb 05:07:35 05:16:47 28° 249° (WSW) 05:25:44 29.354- 29.394
DOVE 4 28 Feb 05:10:05 05:14:34 30° 102° (ESE) 05:19:08 437.250
STARS 28 Feb 05:25:16 05:28:35 21° 258° (WSW) 05:31:54 437.465
KAITUO 1B 28 Feb 05:29:30 05:32:42 27° 101° (ESE) 05:35:53 145.475/437.950
XW-2F 28 Feb 05:38:35 05:42:14 51° 101° (E) 05:45:52 145.980 - 146.000
XW-2D 28 Feb 05:44:54 05:48:39 73° 100° (E) 05:52:24 145.860 - 145.880
XW-2B 28 Feb 05:50:01 05:53:46 85° 103° (ESE) 05:57:32 145.730 - 145.750
JUGNU 28 Feb 05:51:51 05:56:44 26° 198° (SSW) 06:01:40 437.505
STRAND 1 28 Feb 05:54:23 05:55:10 10° 77° (ENE) 05:55:58 437.568
XW-2C 28 Feb 05:58:48 06:02:32 66° 281° (W) 06:06:16 145.795 - 145.815
NUDT-PHONESAT 28 Feb 06:00:24 06:04:06 83° 281° (W) 06:07:48 437.300
CUTE-I 28 Feb 06:10:00 06:15:19 71° 283° (WNW) 06:20:40 437.470
LilacSat-2 28 Feb 06:19:11 06:22:28 28° 281° (WNW) 06:25:45 437.200
XW-2A 28 Feb 06:28:39 06:31:29 24° 101° (E) 06:34:20 145.665 - 145.685
DOVE 4 28 Feb 06:48:38 06:51:58 17° 281° (W) 06:55:21 437.250
SRMSAT 28 Feb 06:54:52 07:00:45 56° 201° (SSW) 07:06:37 437.500
CUBEBUG 2 28 Feb 07:00:28 07:03:35 18° 101° (E) 07:06:40 437.445
SEEDS 28 Feb 07:02:56 07:06:35 30° 102° (ESE) 07:10:15 437.485
SO-50 28 Feb 07:19:12 07:23:03 28° 68° (ENE) 07:26:56 436.795
HO-68 28 Feb 07:19:56 07:27:05 88° 106° (ESE) 07:34:17 435.675
STRAND 1 28 Feb 07:29:11 07:34:03 44° 257° (WSW) 07:38:55 437.568
UWE-3 28 Feb 07:31:02 07:34:45 26° 101° (E) 07:38:22 435.000/436.395/437.385
JUGNU 28 Feb 07:43:49 07:46:29 13° 190° (S) 07:49:09 437.505
ZACube-1 28 Feb 07:45:47 07:49:00 20° 101° (E) 07:52:10 437.345
CUTE 1.7 + AOD 2 28 Feb 07:46:45 07:50:27 31° 281° (WNW) 07:54:10 437.475
O/OREOS (USA 219) 28 Feb 07:59:07 08:00:41 12° 75° (ENE) 08:02:14 437.305
AAUSAT CUBESAT 2 28 Feb 08:18:30 08:22:25 45° 281° (WNW) 08:26:22 437.432
AO-73 28 Feb 08:31:18 08:35:40 85° 102° (ESE) 08:39:57 145.935
Oscar 11 28 Feb 08:34:06 08:38:23 78° 102° (ESE) 08:42:40 .
CUBEBUG 2 28 Feb 08:36:30 08:39:56 21° 282° (WNW) 08:43:19 437.445
SRMSAT 28 Feb 08:45:36 08:50:12 22° 196° (SSW) 08:54:47 437.500
PRISM 28 Feb 08:58:35 09:02:38 57° 78° (ENE) 09:06:38 437.425
SO-50 28 Feb 09:01:14 09:03:16 13° 247° (WSW) 09:05:19 436.795
UWE-3 28 Feb 09:08:39 09:10:54 14° 282° (WNW) 09:13:08 435.000/436.395/437.385
YUBILEINY 28 Feb 09:09:13 09:17:37 47° 93° (E) 09:25:55 435.215
FO-29 28 Feb 09:18:58 09:23:19 19° 74° (ENE) 09:27:56 435.910
ZACube-1 28 Feb 09:22:15 09:25:00 16° 282° (WNW) 09:27:44 437.345
DELFI C3 28 Feb 09:24:22 09:28:17 83° 281° (W) 09:32:15 145.870
O/OREOS (USA 219) 28 Feb 09:35:47 09:39:48 30° 256° (WSW) 09:43:50 437.305
TIGRISAT 28 Feb 10:03:16 10:07:34 59° 258° (WSW) 10:11:57 435.000
UNISAT 6 28 Feb 10:03:58 10:08:14 52° 258° (WSW) 10:12:34 437.425
AIST 2D 28 Feb 10:25:17 10:27:52 19° 79° (E) 10:30:26 435.315
EO-79 28 Feb 10:28:05 10:29:40 12° 78° (ENE) 10:31:15 145.935-145.965
SRMSAT 28 Feb 10:38:08 10:40:10 12° 188° (S) 10:42:13 437.500
NANOSAT C BR1 28 Feb 10:41:50 10:44:40 18° 78° (ENE) 10:47:28 145.865
POLYITAN 1 28 Feb 10:44:52 10:48:09 22° 78° (ENE) 10:51:25 437.675
LO-87 28 Feb 10:46:06 10:49:40 65° 281° (W) 10:53:18 145.935 - 145.965
QB50P2 28 Feb 10:47:41 10:51:16 27° 78° (ENE) 10:54:49 145.880/145.840
ESTCUBE 1 28 Feb 11:00:46 11:05:11 68° 101° (ESE) 11:09:40 437.505/2401.250
SPROUT 28 Feb 11:01:02 11:01:46 10° 102° (ESE) 11:02:28 437.525
FO-29 28 Feb 11:01:54 11:07:50 44° 259° (WSW) 11:14:29 435.910
YUBILEINY 28 Feb 11:07:43 11:13:59 22° 273° (W) 11:20:16 435.215
VELOX 1 28 Feb 11:13:31 11:17:02 23° 102° (ESE) 11:20:33 145.980
JUGNU 28 Feb 11:23:44 11:26:49 14° 169° (S) 11:29:54 437.505
DUCHIFAT 1 28 Feb 11:46:34 11:50:39 53° 258° (WSW) 11:54:43 145.980
EO-79 28 Feb 12:01:41 12:05:10 25° 258° (WSW) 12:08:38 145.935-145.965
NANOSAT C BR1 28 Feb 12:17:20 12:20:06 17° 258° (WSW) 12:22:54 145.865
POLYITAN 1 28 Feb 12:21:29 12:23:40 14° 258° (WSW) 12:25:51 437.675
QB50P2 28 Feb 12:25:27 12:26:46 11° 258° (WSW) 12:28:06 145.880/145.840
DX 1 28 Feb 12:29:54 12:34:15 82° 284° (WNW) 12:38:39 434.975-435.025
BUGSAT 1 28 Feb 12:30:58 12:34:49 46° 258° (WSW) 12:38:41 437.445
SPROUT 28 Feb 12:33:37 12:37:23 30° 282° (WNW) 12:41:11 437.525
50 SAT 28 Feb 12:34:59 12:37:54 26° 281° (WNW) 12:40:51 437.505
UKube-1 28 Feb 12:35:37 12:39:55 77° 102° (ESE) 12:44:15 .
Gurwin Techsat 1B 28 Feb 12:49:40 12:53:49 23° 77° (ENE) 12:57:58 435.225
VELOX 1 28 Feb 12:50:39 12:53:13 15° 282° (WNW) 12:55:49 145.980
AO-85 28 Feb 13:02:20 13:04:50 16° 70° (ENE) 13:07:25 145.980
JUGNU 28 Feb 13:11:18 13:16:27 30° 162° (SSE) 13:21:33 437.505
Oscar 19 28 Feb 13:17:26 13:22:37 73° 258° (WSW) 13:27:44 437.125/150
ITUPSAT 1 28 Feb 13:54:23 13:58:25 28° 103° (ESE) 14:02:27 437.325
NO-84 28 Feb 13:56:46 13:59:11 25° 302° (WNW) 14:01:38 435.350 FM
BEESAT 28 Feb 13:58:34 14:02:47 32° 102° (ESE) 14:07:01 436.000
ITAMSAT 1 28 Feb 14:00:01 14:03:24 18° 77° (ENE) 14:06:46 435.822/435.867
PCSat 28 Feb 14:10:07 14:15:30 81° 290° (WNW) 14:20:54 145.827
SRMSAT 28 Feb 14:17:18 14:20:45 16° 167° (SSE) 14:24:13 437.500
Gurwin Techsat 1B 28 Feb 14:29:26 14:33:28 22° 257° (WSW) 14:37:32 435.225
AO-7 28 Feb 14:34:18 14:41:59 41° 74° (ENE) 14:49:38 .
RS-15 28 Feb 14:35:13 14:45:39 43° 110° (ESE) 14:56:31 29.354- 29.394
AO-85 28 Feb 14:41:48 14:44:57 21° 246° (WSW) 14:48:17 145.980
JUGNU 28 Feb 14:59:40 15:05:36 79° 158° (SSE) 15:11:30 437.505
MOZHAYETS 4 28 Feb 15:27:20 15:31:48 56° 282° (WNW) 15:36:16
BEESAT 3 28 Feb 15:30:25 15:34:13 46° 69° (ENE) 15:37:59 437.485
ITUPSAT 1 28 Feb 15:33:20 15:35:58 15° 283° (WNW) 15:38:37 437.325
ISS 28 Feb 15:33:46 15:36:43 32° 54° (NE) 15:39:40 437.550
KKS-1 28 Feb 15:34:41 15:38:33 29° 102° (ESE) 15:42:25 437.445
ITAMSAT 1 28 Feb 15:38:10 15:42:34 28° 257° (WSW) 15:46:59 435.822/435.867
BEESAT 28 Feb 15:38:19 15:40:17 12° 283° (WNW) 15:42:15 436.000
Tancredo 1 28 Feb 15:50:48 15:53:58 70° 56° (NE) 15:57:07 437.200
STARS 28 Feb 15:59:47 16:03:14 22° 102° (ESE) 16:06:41 437.465
SRMSAT 28 Feb 16:05:05 16:10:25 35° 161° (SSE) 16:15:46 437.500
BEESAT 2 28 Feb 16:15:55 16:19:53 66° 68° (ENE) 16:23:49 435.950
AO-7 28 Feb 16:27:40 16:34:22 27° 253° (WSW) 16:41:05 .
CUBESAT XI-V 28 Feb 16:35:30 16:40:04 73° 282° (WNW) 16:44:41 437.345
RS-15 28 Feb 16:47:42 16:57:38 35° 292° (WNW) 17:08:05 29.354- 29.394
JUGNU 28 Feb 16:49:16 16:54:40 37° 340° (NNW) 17:00:03 437.505
M-CUBED/EXP-1 PRIME 28 Feb 16:53:27 16:57:46 62° 106° (ESE) 17:02:19 437.505
CUTE-I 28 Feb 17:10:51 17:14:52 22° 77° (ENE) 17:18:53 437.470
KKS-1 28 Feb 17:13:00 17:14:50 12° 282° (WNW) 17:16:40 437.445
KAITUO 1B 28 Feb 17:22:09 17:25:06 22° 79° (ENE) 17:28:03 145.475/437.950
DOVE 4 28 Feb 17:31:23 17:35:29 47° 79° (E) 17:39:28 437.250
XW-2F 28 Feb 17:31:59 17:35:35 40° 79° (E) 17:39:11 145.980 - 146.000
STARS 28 Feb 17:36:39 17:39:18 16° 282° (WNW) 17:41:58 437.465
XW-2D 28 Feb 17:38:36 17:42:22 57° 79° (E) 17:46:07 145.860 - 145.880
XW-2B 28 Feb 17:43:41 17:47:30 67° 78° (ENE) 17:51:18 145.730 - 145.750
NUDT-PHONESAT 28 Feb 17:52:04 17:55:47 70° 79° (ENE) 17:59:31 437.300
XW-2C 28 Feb 17:52:27 17:56:17 85° 264° (W) 18:00:07 145.795 - 145.815
SRMSAT 28 Feb 17:53:44 17:59:41 86° 338° (NNW) 18:05:38 437.500
XW-2A 28 Feb 18:12:48 18:14:20 13° 79° (ENE) 18:15:51 145.665 - 145.685
LilacSat-2 28 Feb 18:13:16 18:16:49 36° 259° (W) 18:20:23 437.200
CUTE 1.7 + AOD 2 28 Feb 18:19:30 18:21:14 12° 78° (ENE) 18:22:57 437.475
STRAND 1 28 Feb 18:23:26 18:27:42 27° 103° (ESE) 18:31:58 437.568
JUGNU 28 Feb 18:40:32 18:44:06 16° 346° (NNW) 18:47:39 437.505
CUTE-I 28 Feb 18:50:26 18:54:38 24° 257° (WSW) 18:58:50 437.470
KAITUO 1B 28 Feb 18:57:57 18:58:51 11° 258° (WSW) 18:59:45 145.475/437.950
SEEDS 28 Feb 19:07:54 19:11:51 37° 79° (ENE) 19:15:45 437.485
HO-68 28 Feb 19:11:34 19:18:46 75° 75° (ENE) 19:25:55 435.675
CUBEBUG 2 28 Feb 19:12:02 19:15:33 25° 78° (ENE) 19:19:08 437.445
SO-50 28 Feb 19:31:10 19:35:51 56° 112° (ESE) 19:40:28 436.795
UWE-3 28 Feb 19:41:32 19:45:29 35° 78° (ENE) 19:49:31 435.000/436.395/437.385
SRMSAT 28 Feb 19:43:44 19:48:57 32° 341° (NNW) 19:54:12 437.500
XW-2A 28 Feb 19:45:07 19:46:50 13° 259° (WSW) 19:48:34 145.665 - 145.685
CUTE 1.7 + AOD 2 28 Feb 19:53:12 19:56:47 26° 258° (WSW) 20:00:22 437.475
ZACube-1 28 Feb 19:54:47 19:58:29 27° 78° (ENE) 20:02:15 437.345
STRAND 1 28 Feb 20:03:15 20:06:36 18° 283° (WNW) 20:09:58 437.568
O/OREOS (USA 219) 28 Feb 20:08:33 20:11:44 19° 105° (ESE) 20:14:53 437.305
AAUSAT CUBESAT 2 28 Feb 20:22:01 20:25:58 40° 258° (WSW) 20:29:53 437.432
AO-73 28 Feb 20:40:28 20:44:47 70° 260° (W) 20:49:11 145.935
Oscar 11 28 Feb 20:42:44 20:47:05 77° 259° (W) 20:51:26 .
UNISAT 6 28 Feb 20:44:30 20:45:13 10° 102° (ESE) 20:45:57 437.425
CUBEBUG 2 28 Feb 20:49:56 20:51:56 13° 259° (W) 20:53:56 437.445
PRISM 28 Feb 21:01:01 21:05:03 62° 101° (ESE) 21:09:09 437.425
DELFI C3 28 Feb 21:22:46 21:26:46 87° 253° (WSW) 21:30:44 145.870
ZACube-1 28 Feb 21:32:48 21:34:30 12° 259° (WSW) 21:36:14 437.345
SRMSAT 28 Feb 21:35:26 21:38:40 15° 348° (NNW) 21:41:56 437.500
YUBILEINY 28 Feb 21:42:17 21:50:59 88° 85° (E) 21:59:43 435.215
O/OREOS (USA 219) 28 Feb 21:47:54 21:50:50 17° 285° (WNW) 21:53:46 437.305
AIST 2D 28 Feb 22:12:51 22:14:02 11° 101° (ESE) 22:15:11 435.315
TIGRISAT 28 Feb 22:16:36 22:20:51 38° 282° (WNW) 22:25:01 435.000
UNISAT 6 28 Feb 22:17:33 22:21:41 34° 282° (WNW) 22:25:45 437.425
JUGNU 28 Feb 22:22:53 22:24:16 11° 7° (N) 22:25:39 437.505
EO-79 28 Feb 22:33:16 22:35:41 15° 102° (ESE) 22:38:06 145.935-145.965
LO-87 28 Feb 22:34:19 22:37:51 75° 79° (E) 22:41:22 145.935 - 145.965
FO-29 28 Feb 22:35:57 22:42:34 75° 283° (WNW) 22:48:24 435.910
NANOSAT C BR1 28 Feb 22:47:03 22:50:18 21° 102° (ESE) 22:53:32 145.865
POLYITAN 1 28 Feb 22:50:44 22:54:22 27° 102° (ESE) 22:57:58 437.675
QB50P2 28 Feb 22:53:38 22:57:28 33° 102° (ESE) 23:01:19 145.880/145.840
SPROUT 28 Feb 23:06:56 23:08:54 13° 78° (ENE) 23:10:53 437.525
ESTCUBE 1 28 Feb 23:14:48 23:19:20 75° 257° (WSW) 23:23:50 437.505/2401.250
VELOX 1 28 Feb 23:24:40 23:28:37 33° 78° (ENE) 23:32:32 145.980
AIST 2D 28 Feb 23:44:42 23:46:59 17° 281° (W) 23:49:16 435.315
DUCHIFAT 1 28 Feb 23:51:56 23:55:58 44° 282° (WNW) 00:00:00 145.980
NO-84 01 Mar 00:05:27 00:06:33 11° 57° (ENE) 00:07:38 435.350 FM
EO-79 01 Mar 00:07:56 00:11:10 21° 282° (WNW) 00:14:25 145.935-145.965
JUGNU 01 Mar 00:09:50 00:14:05 20° 16° (NNE) 00:18:23 437.505
